This demonstration page uses our WeatherBlox Daily Observations layout. Learn more.

38.88101, -77.10428

Hourly Observations for December 31, 2015

Temp ( °F °C ) Dew Point ( °F °C ) Humidity (%) Winds ( mph kmh ) Pressure ( in mb ) Visibility ( mi km ) Precip ( " mm )
12:32 am 00:32 Cloudy 52 11 52 11 100 100 N 5 7 30.09 1019 7 11.26538 0 0
12:52 am 00:52 Cloudy with Mist and Fog 52 11.1 52 11.1 100 100 Calm 30.07 1018 5 8.0467 0 0
1:52 am 01:52 Cloudy with Mist and Fog 52 11.1 51 10.6 97 97 Calm 30.06 1018 3 4.82802 0 0
2:28 am 02:28 Cloudy 54 12 52 11 94 94 Calm 30.06 1018 8 12.87472 0 0
2:52 am 02:52 Cloudy with Mist and Fog 52 11.1 51 10.6 97 97 N 5 7 30.07 1018 5 8.0467 0 0
3:00 am 03:00 Cloudy with Mist and Fog 52 11 52 11 100 100 N 7 11 30.06 1018 5 8.0467 0 0
3:39 am 03:39 Cloudy 52 11.1 51 10.6 97 97 NNW 6 9 30.09 1019 10 16.0934 0 0
3:52 am 03:52 Cloudy 52 11.1 50 10 93 93 NNW 7 11 30.08 1019 10 16.0934 0 0
4:00 am 04:00 Cloudy 52 11 50 10 94 94 N 6 9 30.06 1018 10 16.0934 0 0
4:29 am 04:29 Mostly Cloudy 51 10.6 49 9.4 92 92 NNW 6 9 30.09 1019 10 16.0934 0 0
4:52 am 04:52 Mostly Cloudy 50 10 49 9.4 96 96 N 6 9 30.07 1018 10 16.0934 0 0
5:52 am 05:52 Cloudy 52 11.1 49 9.4 89 89 NNW 6 9 30.09 1019 10 16.0934 0 0
6:52 am 06:52 Cloudy 51 10.6 47 8.3 86 86 NNW 7 11 30.11 1020 10 16.0934 0 0
7:52 am 07:52 Cloudy 51 10.6 46 7.8 83 83 N 7 11 30.13 1020 10 16.0934 0 0
8:52 am 08:52 Mostly Cloudy 52 11.1 44 6.7 75 75 NNW 10 17 30.15 1021 10 16.0934 0 0
9:52 am 09:52 Mostly Cloudy 53 11.7 44 6.7 72 72 NW 7 11 30.15 1021 10 16.0934 0 0
10:52 am 10:52 Mostly Cloudy 54 12.2 43 6.1 67 67 N 6 9 30.15 1021 10 16.0934 0 0
11:52 am 11:52 Mostly Cloudy 54 12.2 42 5.6 64 64 NNW 13 20 30.13 1020 10 16.0934 0 0
12:52 pm 12:52 Cloudy 55 12.8 43 6.1 64 64 NNW 8 13 30.1 1019 10 16.0934 0 0
1:52 pm 13:52 Cloudy 56 13.3 42 5.6 60 60 NNW 10 17 30.1 1019 10 16.0934 0 0
2:52 pm 14:52 Cloudy 55 12.8 42 5.6 62 62 NNW 10 17 30.09 1019 10 16.0934 0 0
3:52 pm 15:52 Cloudy 52 11.1 41 5 66 66 NNW 13 20 30.11 1020 10 16.0934 0 0
4:52 pm 16:52 Cloudy 50 10 39 3.9 66 66 NNW 10 17 30.13 1020 10 16.0934 0 0
5:52 pm 17:52 Cloudy 50 10 39 3.9 66 66 NNW 7 11 30.13 1020 10 16.0934 0 0
6:52 pm 18:52 Cloudy 50 10 36 2.2 59 59 N 9 15 30.15 1021 10 16.0934 0 0
7:52 pm 19:52 Cloudy 49 9.4 37 2.8 64 64 N 14 22 30.16 1022 10 16.0934 0 0
8:52 pm 20:52 Cloudy 48 8.9 36 2.2 63 63 N 10 17 30.17 1022 10 16.0934 0 0
9:52 pm 21:52 Cloudy 46 7.8 34 1.1 63 63 N 17 28 30.17 1022 10 16.0934 0 0
10:52 pm 22:52 Cloudy 46 7.8 33 0.6 61 61 NNW 9 15 30.17 1022 10 16.0934 0 0
11:52 pm 23:52 Cloudy 45 7.2 32 0 61 61 N 12 19 30.16 1022 10 16.0934 0 0

Powered by AerisWeather